Home   Weather   Mount Pearl   Past weeks

Flag for Canada Past Weather in Mount Pearl, Newfoundland and Labrador, Canada — Yesterday and Last 2 Weeks

Now
16 °F

Passing clouds.


Feels Like: 3 °F
Forecast: 16 / 30 °F
Wind: 12 mph from Northwest

Location: St. John's

Current Time: Jan 17, 2017 at 10:36:54 pm

Latest Report: Jan 17, 2017 at 9:40 pm


Visibility: 15 mi

Pressure: 29.77 "Hg

Humidity: 86%

Dew Point: 12 °F

Location of Mount PearlLocation

Past Weather in Mount Pearl — Graph

°F

Mount Pearl Temperature Yesterday

Maximum temperature yesterday: 23 °F (at 12:30 am)
Minimum temperature yesterday: 5 °F (at 10:30 pm)
Average temperature yesterday: 14 °F

High & Low Weather Summary for the Past Weeks

 TemperatureHumidityPressure
High46 °F (Jan 8, 4:30 pm)100% (Jan 5, 3:30 am)30.90 "Hg (Jan 5, 3:30 am)
Low5 °F (Jan 16, 10:30 pm)48% (Jan 14, 5:30 am)29.35 "Hg (Jan 5, 12:30 pm)
Average26 °F82%30.06 "Hg
* Reported Jan 2 10:09 pm — Jan 17 9:30 pm, Mount Pearl, Weather by CustomWeather, © 2017

Note: Actual official high and low records may vary slightly from our data, if they occured in-between our weather recording intervals... More about our weather records

Advertising

Mount Pearl Weather History for the Previous 24 Hours

Scroll right to see more
 ConditionsComfort  
Time TempWeatherWind HumidityBarometerVisibility
9:30 pm
Tue, Jan 17
18 °FPassing clouds.13 mph86%29.77 "Hg15 mi
8:30 pm19 °FSnow flurries. Partly cloudy.13 mph79%29.77 "Hg10 mi
7:51 pm21 °FSnow flurries. Overcast.8 mph80%29.78 "Hg2 mi
6:30 pm18 °FPassing clouds.8 mph79%29.77 "Hg15 mi
5:30 pm21 °FPassing clouds.10 mph74%29.76 "Hg15 mi
4:30 pm25 °FPartly cloudy.13 mph74%29.75 "Hg15 mi
3:30 pm25 °FPartly sunny.14 mph86%29.74 "Hg15 mi
3:06 pm27 °FMostly cloudy.13 mph86%29.73 "Hg15 mi
2:30 pm28 °FSnow flurries. Mostly cloudy.15 mph80%29.73 "Hg3 mi
2:02 pm28 °FSnow flurries. Mostly cloudy.12 mph80%29.73 "Hg2 mi
1:11 pm28 °FSnow flurries. More clouds than sun.14 mph80%29.73 "Hg15 mi
12:30 pm28 °FMore clouds than sun.13 mph86%29.74 "Hg15 mi
12:08 pm28 °FMore clouds than sun.12 mph86%29.75 "Hg15 mi
11:30 am28 °FLight snow. Low clouds.10 mph86%29.77 "Hg12 mi
10:55 am28 °FSnow. Ice fog.14 mph86%29.79 "Hg1 mi
10:30 am28 °FLight snow. Overcast.22 mph86%29.79 "Hg3 mi
9:30 am27 °FLight snow. Overcast.24 mph86%29.82 "Hg2 mi
8:30 am25 °FLight snow. Overcast.23 mph86%29.86 "Hg12 mi
7:30 am23 °FLight snow. Overcast.20 mph86%29.89 "Hg10 mi
6:30 am21 °FLight snow. Mostly cloudy.15 mph86%29.93 "Hg6 mi
5:30 am18 °FLight snow. Overcast.20 mph86%29.96 "Hg6 mi
4:30 am16 °FLight snow. Mostly cloudy.18 mph86%29.98 "Hg12 mi
3:30 am12 °FLight snow. Overcast.18 mph85%30.02 "Hg3 mi
2:30 am9 °FLight snow. Overcast.10 mph78%30.05 "Hg12 mi
1:30 am7 °FMostly cloudy.10 mph78%30.09 "Hg15 mi
12:30 am5 °FPassing clouds.7 mph72%30.11 "Hg15 mi
11:30 pm
Mon, Jan 16
7 °FPassing clouds.9 mph78%30.13 "Hg15 mi
10:30 pm5 °FPassing clouds.8 mph78%30.15 "Hg15 mi
Weather by CustomWeather, © 2017

See weather overviewHow to use our weather pages